Tracking 26321 objects as of 28-Nov-2022
HD Live streaming from Space Station
objects crossing your sky now

NOAA 16 DEB

Track NOAA 16 DEB now!
10-day predictions


NORAD ID: 41531
Int'l Code: 2000-055NF
Perigee: 847.5 km
Apogee: 895.6 km
Inclination: 98.7 °
Period: 102.2 minutes
Semi major axis: 7242 km
RCS: Unknown
Launch date: September 21, 2000
Source: United States (US)
Launch site: AIR FORCE WESTERN TEST RANGE (AFWTR)

Note: This is SATELLITE DEBRIS
aabbcc
Your satellite tracking list
Your tracking list is empty




NASA's NSSDC Master Catalog

Two Line Element Set (TLE):
1 41531U 00055NF  22331.57507374  .00001334  00000-0  79770-3 0  9997
2 41531  98.7399  11.5489 0033183 317.7165  42.1447 14.08536297339874
Source of the keplerian elements: AFSPC